Hutchinson, KS

7:12 AM CDT on October 23, 2017 (GMT -0500)
Hutchinson Municipal

Weather History for KHUT - August, 2014

Change the Weather History Date:

Saturday, August 16, 2014

  Actual Average Record
Temperature  
Mean Temperature 80 °F -  
Max Temperature 96 °F 88 °F 102 °F (1999)
Min Temperature 66 °F 63 °F 57 °F (2001)
Cooling Degree Days 16    
Growing Degree Days 30 (Base 50)    
Moisture  
Dew Point 65 °F    
Average Humidity 59    
Maximum Humidity 84    
Minimum Humidity 37    
Precipitation  
Precipitation 0.00 in - - ()
Sea Level Pressure  
Sea Level Pressure 29.81 in    
Wind  
Wind Speed 6 mph (ENE)    
Max Wind Speed 13 mph    
Max Gust Speed 17 mph    
Visibility 10 miles    
Events      
Averages and records for this station are not official NWS values.
T = Trace of Precipitation, MM = Missing Value Source: NWS Daily Summary

Daily Weather History Graph

Daily Weather History Graph

Search for Another Location

Airport or City:

Trip Planner

Search our weather history database for the weather conditions in past years. The results will help you decide how hot, cold, wet, or windy it might be!

Date:

Astronomy

Aug. 16, 2014 Rise Set
Actual Time 6:47 AM CDT 8:23 PM CDT
Civil Twilight 6:19 AM CDT 8:51 PM CDT
Nautical Twilight 5:45 AM CDT 9:24 PM CDT
Astronomical Twilight 5:09 AM CDT 10:00 PM CDT
Moon No Moon Rise 1:27 PM CDT (8/16)
Length of Visible Light 14h 31m
Length of Day
13h 36m
Waning Gibbous, 58% of the Moon is Illuminated
Aug 16
Waning Gibbous
Aug 17
Last Quarter
Aug 25
New
Sep 2
First Quarter
Sep 8
Full

Hourly Weather History & Observations

Time (CDT) Temp. Heat Index Dew Point Humidity Pressure Visibility Wind Dir Wind Speed Gust Speed Precip Events Conditions
12:52 AM 78.1 °F - 62.1 °F 58% 29.77 in 10.0 mi SSW 9.2 mph - N/A   Clear
1:52 AM 75.0 °F - 62.1 °F 64% 29.76 in 10.0 mi SSW 5.8 mph - N/A   Clear
2:52 AM 73.0 °F - 62.1 °F 68% 29.77 in 10.0 mi SSW 4.6 mph - N/A   Clear
3:52 AM 70.0 °F - 62.1 °F 76% 29.77 in 10.0 mi SSE 4.6 mph - N/A   Clear
4:52 AM 71.1 °F - 63.0 °F 75% 29.76 in 10.0 mi South 5.8 mph - N/A   Mostly Cloudy
5:52 AM 71.1 °F - 63.0 °F 75% 29.76 in 10.0 mi SSW 4.6 mph - N/A   Clear
6:52 AM 66.9 °F - 62.1 °F 84% 29.78 in 10.0 mi Calm Calm - N/A   Clear
7:52 AM 71.1 °F - 64.0 °F 78% 29.81 in 10.0 mi Calm Calm - N/A   Clear
8:52 AM 79.0 °F - 64.9 °F 62% 29.81 in 10.0 mi North 4.6 mph - N/A   Clear
9:52 AM 82.9 °F 85.0 °F 66.0 °F 56% 29.81 in 10.0 mi NNE 4.6 mph - N/A   Clear
10:52 AM 88.0 °F 90.7 °F 66.9 °F 49% 29.82 in 10.0 mi NNE 6.9 mph - N/A   Clear
11:52 AM 90.0 °F 92.8 °F 66.9 °F 46% 29.83 in 10.0 mi NE 12.7 mph 17.3 mph N/A   Clear
12:52 PM 91.9 °F 95.4 °F 66.9 °F 44% 29.82 in 10.0 mi Variable 6.9 mph - N/A   Clear
1:52 PM 95.0 °F 99.0 °F 66.9 °F 40% 29.82 in 10.0 mi Variable 5.8 mph - N/A   Partly Cloudy
2:52 PM 95.0 °F 97.9 °F 66.0 °F 38% 29.82 in 10.0 mi NE 10.4 mph - N/A   Scattered Clouds
3:52 PM 95.0 °F 97.4 °F 64.9 °F 37% 29.82 in 10.0 mi Variable 5.8 mph 16.1 mph N/A   Clear
4:52 PM 95.0 °F 97.9 °F 66.0 °F 38% 29.81 in 10.0 mi NW 9.2 mph - N/A   Clear
5:52 PM 93.9 °F 97.5 °F 66.9 °F 41% 29.80 in 10.0 mi NNE 6.9 mph - N/A   Clear
6:52 PM 91.9 °F 95.9 °F 68.0 °F 45% 29.80 in 10.0 mi Variable 4.6 mph - N/A   Clear
7:52 PM 87.1 °F 90.6 °F 68.0 °F 53% 29.81 in 10.0 mi NE 3.5 mph - N/A   Clear
8:52 PM 81.0 °F 83.8 °F 68.0 °F 65% 29.83 in 10.0 mi NE 3.5 mph - N/A   Clear
9:52 PM 78.1 °F - 66.9 °F 68% 29.85 in 10.0 mi ENE 4.6 mph - N/A   Clear
10:52 PM 77.0 °F - 66.0 °F 69% 29.86 in 10.0 mi Calm Calm - N/A   Clear
11:52 PM 72.0 °F - 66.0 °F 81% 29.86 in 10.0 mi Calm Calm - N/A   Clear